sat.trackr.live / text

‹ back to catalog

STARLINK-31391

NORAD 59406 · 2024-064J

PAYLOAD ACTIVE UNKNOWN

§ Identity

Operator
Country
US
Launch date
2024-04-05
Launch site
AFETR
Launch vehicle
Mass (kg)
RCS (m²)

Purposes: comms

External: N2YO · Heavens-Above · Gunter

§ Orbital elements

Epoch: 2026-05-24T23:04:00.009408Z

Period
94.27 min
Inclination
43.0023°
Eccentricity
0.0000989
Mean motion
15.27559239 rev/d
Perigee alt
482.4 km
Apogee alt
483.8 km
Semi-major
6,861.2 km
B*
1.0591e-5
RAAN
345.1619°
Arg perigee
255.4710°
Mean anomaly
104.6032°
Rev number
12,089

§ Raw data

STARLINK-313911 59406U 24064J   26144.96111122  .00000029  00000+0  10591-4 0  99902 59406  43.0023 345.1619 0000989 255.4710 104.6032 15.27559239120891

JSON: /api/v1/satellites/59406 · /tle

For live sub-satellite position, see the globe view (requires WebGL).

§ Visibility from observer

Set your observer location to see the next 7 days of passes ≥ 10°. The values pass through the URL so the page stays shareable.

No JS? Fill the form by hand. The geolocation button needs JavaScript.